{"data":{"norad_id":53765,"epoch":"2026-05-25T03:45:24.686208Z","epoch_age_seconds":51621,"freshness":"FRESH","line1":"1 53765U 22110A   26145.15653572  .00000014  00000+0  00000+0 0  9997","line2":"2 53765   0.0600 104.8962 0002755 298.2626 258.6482  1.00268399  6603","mean_motion":1.00268399,"eccentricity":0.0002755,"inclination_deg":0.06,"raan_deg":104.8962,"arg_perigee_deg":298.2626,"mean_anomaly_deg":258.6482,"bstar":0,"rev_number":660,"period_min":1436.1454001076,"perigee_km":35775.927561446,"apogee_km":35799.16085179,"semimajor_km":42165.681206618,"source":"CELESTRAK","updated_at":"2026-05-25T13:38:14.109760Z"}}